www.pogodaiklimat.ru

Погода и климат >> Архив погоды >> Таиланд >> Паттайя


ПОГОДА в Паттайе

  • Прогноз погоды в Паттайе
  • Монитор погоды в Паттайе

АРХИВ ПОГОДЫ в Паттайе

Время (UTC), дата Ветер
(напр.,м/с)
 
Видим.   Явления Облачность Т
(С)
Тd
(С)
f
(%)
Тe
(С)
Тes
(С)
Комфортность P
(гПа)
Po
(гПа)
Тmin
(С)
Tmax
(С)
R
(мм)
R24
(мм)
S
(см)
21 8.09 штиль 0 10 км 8/3 600 м
[Sc Ac As Cs]
+27.6 +24.1 81 +38 +38 очень
душно
1007.6 1000.7
00 9.09 ЮЗ 5 10 км 9/4 600 м
[Sc Ac As Cs]
+27.1 +24.1 84 +38 +38 очень
душно
1009.1 1002.1 +26.7
03 9.09 ЮЗ 7 12 км 9/5 600 м
[Sc Ac As Cs]
+29.5 +23.7 71 +40 +42 очень
душно
1003.9 997.0
06 9.09 ЮЗ 7 12 км 9/4 600 м
[Sc Ac As Cs]
+30.0 +24.3 72 +42 +44 опасность
перегрева
1008.5 1001.6
09 9.09 ЮЗ 5 10 км 9/4 600 м
[Sc Ac As Cs]
+29.5 +24.5 75 +42 +43 опасность
перегрева
1007.0 1000.2
12 9.09 ЮЗ 4 10 км 6/3 600 м
[Cu hum Cs]
+28.5 +24.9 81 +41 +41 опасность
перегрева
1007.2 1000.3 +31.0
15 9.09 ЮЗ 5 10 км 8/4 600 м
[Sc Ac As Cs]
+28.5 +24.9 81 +41 +41 опасность
перегрева
1009.5 1002.6
18 9.09 З 3 10 км 8/4 600 м
[Sc Ac As Cs]
+28.0 +23.6 77 +38 +38 очень
душно
1008.6 1001.7
21 9.09 ЮЗ 4 10 км 8/4 600 м
[Sc Ac As Cs]
+27.5 +23.9 81 +38 +38 очень
душно
1008.3 1001.3
00 10.09 ЮЗ 3 12 км 10/5 600 м
[Sc Ac As Cs]
+27.8 +23.7 78 +38 +38 очень
душно
1009.7 1002.8 +26.2
03 10.09 ЮЗ 9 12 км 10/4 600 м
[Sc Ac As Cs]
+29.5 +22.9 68 +39 +40 очень
душно
1011.4 1004.5
06 10.09 З 4 12 км 10/4 600 м
[Sc Ac As Cs]
+31.8 +23.4 61 +43 +47 опасность
перегрева
1009.4 1002.5
09 10.09 З 5 12 км 10/4 600 м
[Sc Ac As Cs]
+30.5 +24.8 72 +44 +45 опасность
перегрева
1007.9 1001.1
12 10.09 ЮЗ 3 10 км 8/4 600 м
[Sc Ac As Cs]
+28.5 +24.2 78 +40 +40 очень
душно
1009.2 1002.3 +31.3
15 10.09 З 4 10 км 8/4 600 м
[Sc Ac As Cs]
+28.2 +25.8 87 +42 +42 опасность
перегрева
1011.9 1005.0
18 10.09 ЮЗ 3 10 км 8/4 600 м
[Sc Ac As Cs]
+28.0 +23.6 77 +38 +38 очень
душно
1011.4 1004.5
21 10.09 ЮЗ 5 12 км 8/4 600 м
[Sc Ac As Cs]
+28.8 +24.0 75 +40 +40 очень
душно
1011.3 1004.4
00 11.09 ЮЗ 4 12 км 8/4 600 м
[Sc Ac As Cs]
+28.0 +22.9 74 +37 +38 очень
душно
1012.7 1005.7 +27.0
03 11.09 штиль 0 12 км 8/3 600 м
[Cu hum Ac As Cs]
+30.4 +21.2 58 +38 +47 очень
душно
1014.0 1007.1
06 11.09 СЗ 4 12 км 8/3 600 м
[Cu hum Ac As Cs]
+31.9 +22.6 58 +42 +48 опасность
перегрева
1012.1 1005.2
09 11.09 СЗ 3 12 км 8/3 600 м
[Cu hum Ac As Cs]
+31.5 +22.6 59 +41 +44 опасность
перегрева
1010.3 1003.5
12 11.09 ЮЗ 5 10 км 6/3 600 м
[Cu hum Cs]
+29.5 +22.9 68 +39 +39 очень
душно
1010.8 1003.9 +32.4
15 11.09 штиль 0 10 км 8/3 600 м
[Sc Ac As Cs]
+28.7 +24.2 77 +40 +40 очень
душно
1013.4 1006.5
18 11.09 ЮЗ 3 10 км 8/3 600 м
[Sc Ac As Cs]
+28.1 +25.1 84 +41 +41 опасность
перегрева
1013.0 1006.0
21 11.09 штиль 0 10 км 6/3 600 м
[Cu hum Cs]
+27.2 +24.8 87 +39 +39 очень
душно
1012.0 1005.1
00 12.09 штиль 0 10 км 8/5 600 м
[Sc Ac As Cs]
+27.0 +24.7 87 +38 +39 очень
душно
1012.3 1005.3 +26.5
03 12.09 штиль 0 10 км 8/4 600 м
[Sc Ac As Cs]
+30.2 +23.5 67 +41 +49 опасность
перегрева
1013.4 1006.5
06 12.09 штиль 0 8000 м мгла 8/3 600 м
[Cu hum Ac As Cs]
+31.3 +22.9 61 +41 +54 опасность
перегрева
1012.0 1005.1
09 12.09 З 3 10 км 6/0
[Cs]
+32.7 +21.3 51 +40 +45 очень
душно
1009.3 1002.5
12 12.09 ЮЗ 5 10 км 6/3 600 м
[Sc Ac As Cs]
+29.6 +22.9 67 +39 +39 очень
душно
1009.7 1002.8 +33.0
15 12.09 штиль 0 10 км в посл. час дождь 8/4 600 м
[Sc Ac As Cs]
+26.6 +24.3 87 +37 +37 очень
душно
1011.7 1004.8 4
18 12.09 ЮЗ 4 10 км {дождь} 8/4 600 м
[Sc Ac As Cs]
+27.7 +24.4 82 +39 +39 очень
душно
1010.9 1003.9 4
21 12.09 штиль 0 10 км 6/3 600 м
[Cu hum Cs]
+28.0 +22.7 73 +37 +37 очень
душно
1009.2 1002.3
00 13.09 СЗ 4 12 км 10/5 600 м
[Sc Ac As Cs]
+28.1 +22.5 72 +37 +37 очень
душно
1010.5 1003.6 +26.5
03 13.09 СЗ 5 12 км 9/4 600 м
[Sc Ac As Cs]
+30.0 +22.8 65 +40 +42 очень
душно
1011.2 1004.3
06 13.09 СЗ 4 12 км 9/4 600 м
[Sc Ac As Cs]
+30.5 +22.6 63 +40 +45 очень
душно
1009.3 1002.4
09 13.09 З 4 12 км 9/3 600 м
[Cu hum Ac As Cs]
+30.6 +24.0 68 +42 +44 опасность
перегрева
1006.5 999.6
12 13.09 ЮЗ 3 10 км 9/4 600 м
[Sc Ac As Cs]
+28.8 +24.5 78 +41 +41 опасность
перегрева
1006.8 999.9 +30.8
15 13.09 СЗ 4 10 км 10/5 600 м
[Sc Ac As Cs]
+28.6 +24.3 78 +40 +40 очень
душно
1008.6 1001.7
18 13.09 ЮЗ 3 10 км 10/4 600 м
[Sc Ac As Cs]
+28.5 +23.6 75 +39 +39 очень
душно
1007.5 1000.6
21 13.09 З 3 10 км 9/5 600 м
[Sc Ac As Cs]
+27.3 +23.8 81 +37 +37 очень
душно
1007.1 1000.1
00 14.09 штиль 0 10 км 10/4 600 м
[Sc Ac As Cs]
+26.6 +24.3 87 +37 +37 очень
душно
1008.0 1001.0 +25.7
03 14.09 штиль 0 12 км 10/5 600 м
[Sc Ac As Cs]
+28.6 +24.9 80 +41 +46 опасность
перегрева
1009.3 1002.4
06 14.09 З 5 12 км 10/5 600 м
[Sc Ac As Cs]
+29.1 +23.9 74 +40 +43 очень
душно
1007.6 1000.7
09 14.09 ЮЗ 4 12 км 9/4 600 м
[Sc Ac As Cs]
+29.0 +23.5 72 +39 +41 очень
душно
1005.4 998.6
12 14.09 ЮЗ 4 10 км зарница 10/5 600 м
[Cb cap Ac As Cs]
+28.6 +24.3 78 +40 +40 очень
душно
1006.5 999.6 +29.7
15 14.09 ЮЗ 3 10 км слаб. дождь 10/5 600 м
[Sc Ac As Cs]
+27.7 +25.7 89 +41 +41 опасность
перегрева
1008.4 1001.5 0.5
18 14.09 ЮЗ 5 10 км {дождь} 10/5 600 м
[Sc Ac As Cs]
+26.5 +25.5 94 +39 +39 очень
душно
1007.2 1000.3 2
21 14.09 штиль 0 10 км 10/5 600 м
[Sc Ac As Cs]
+26.5 +25.1 92 +38 +38 очень
душно
1006.2 999.3
00 15.09 штиль 0 10 км {дождь} 10/5 600 м
[Sc Ac As Cs]
+26.3 +25.0 93 +38 +38 очень
душно
1007.4 1000.4 +26.0 0.5
03 15.09 ЮЗ 3 10 км 10/5 600 м
[Sc Ac As Cs]
+28.5 +24.9 81 +41 +44 опасность
перегрева
1008.9 1002.0
06 15.09 З 5 12 км 8/4 600 м
[Sc Ac As Cs]
+28.5 +24.9 81 +41 +45 опасность
перегрева
1006.3 999.4
09 15.09 ЮЗ 3 12 км {гроза} 8/4 600 м
[Sc Ac As Cs]
+28.0 +24.4 81 +39 +42 очень
душно
1005.0 998.1
12 15.09 ЮЗ 3 10 км {гроза} 8/4 600 м
[Sc Ac As Cs]
+27.5 +24.6 84 +39 +39 очень
душно
1006.0 999.1 +30.2
15 15.09 штиль 0 10 км 8/4 600 м
[Sc Ac As Cs]
+27.5 +25.4 88 +40 +40 очень
душно
1008.1 1001.2
18 15.09 ЮЗ 3 10 км 8/4 600 м
[Sc Ac As Cs]
+27.5 +24.6 84 +39 +39 очень
душно
1007.1 1000.2

 

Местоположение метеостанции Паттайя (Таиланд): широта 12.92 долгота 100.86 высота над уровнем моря 61 м.

В архиве по умолчанию представлена погода в Паттайе за последнюю неделю. Архивные данные за месяц целиком и за предыдущие месяцы, начиная с января 2011 года, Вы можете получить, выбрав интересующий диапазон дат из раскрывающегося списка и нажав кнопку "Ввод!".


*Определитесь, кто Вы:
робот инопланетянин человек

Внимание! Время в таблицах - всемирное. Для получения местного времени необходимо прибавить поправку, которая равна 7 ч.

Смотрите также архив погоды в соседних городах и на ближайших метеорологических станциях:

Погода на Ко Сичан (Таиланд) (29 км)
Погода в Саттахипе (Таиланд) (30 км)
Погода в Хуайпонг Агромете (Таиланд) (36 км)
Погода в Чонбури (Таиланд) (52 км)
Погода в Ратбури (Таиланд) (52 км)
Погода в Бангкок Пилот (Таиланд) (58 км)
Погода в Районге (Таиланд) (62 км)
Погода в Самутрудкан Агромете (Таиланд) (68 км)
Погода в Аэропорту Суварнабхуми (Таиланд) (85 км)
Погода в Бангна Агромете (Таиланд) (87 км)

Пояснения к столбцам:

Ветер - указаны скорость ветра в м/с - средняя за 10 мин, порывы в срок и между сроками (в фигурных скобках) и направление, откуда дует ветер: С - северный, СВ - северо-восточный, В - восточный, ЮВ - юго-восточный, Ю - южный, ЮЗ - юго-западный, З - западный, СЗ - северо-западный.
Видимость - горизонтальная дальность видимости в метрах или километрах. При видимости от 1 до 10 км при отсутствии осадков обычно наблюдается дымка, при ухудшении видимости до 1 км и менее - туман. В сухую погоду видимость может ухудшаться дымом, пылью или мглою.
Явления - указаны атмосферные явления, наблюдавшиеся в срок или в последний час перед сроком; фигурными скобками обозначены явления, наблюдавшиеся между сроками (за 1-3 часа до срока); квадратными скобками обозначены град или гололедные отложения с указанием их диаметра в мм.
Облачность - указаны через наклонную черту общая и нижняя облачность в баллах и высота нижней границы облаков в метрах; квадратными скобками обозначены формы облаков: Ci - перистые, Cs - перисто-слоистые, Cc - перисто-кучевые, Ac - высококучевые, As - высокослоистые, Sc - слоисто-кучевые, Ns - слоисто-дождевые, Cu - кучевые, Cb - кучево-дождевые. Подробнее классификацию облаков см. в Атласе облаков (PDF).
T - Температура воздуха - температура, измеренная на высоте 2 м над землей.
Td - Температура точки росы - температура, при понижении до которой содержащийся в воздухе водяной пар достигнет насыщения.
f - Относительная влажность воздуха - влажноcть воздуха, измеренная на высоте 2 м над землей.
Te - Эффективная температура - температура, которую ощущает одетый по сезону человек в тени. Характеристика душности погоды. При расчете учитывается влияние влажности воздуха и скорости ветра на теплоощущения человека.
Tes - Эффективная температура на солнце - температура, которую ощущает человек, с поправкой на солнечный нагрев. Характеристика знойности погоды. Зависит от высоты солнца над горизонтом, облачности и скорости ветра. Ночью, в пасмурную погоду, а также при ветре 12 м/с и более поправка равна нулю.
P - Атмосферное давление - приведенное к уровню моря атмосферное давление.
Po - Атмосферное давление - измеренное на уровне метеостанции атмосферное давление.
Tmin - Минимальная температура - минимум температуры воздуха на высоте 2 м над землей.
Tmax - Максимальная температура - максимум температуры воздуха на высоте 2 м над землей.
R - Количество осадков - Количество выпавших осадков за период времени, мм. При наведении курсора мыши на число - период времени, за который выпало указанное количество осадков.
R24 - Количество осадков - Количество выпавших осадков за 24 часа, мм.
S - Снежный покров - Высота снежного покрова, см. При наведении курсора мыши на число - состояние снежного покрова и степень покрытия местности в баллах.